Blythe, CA

6:20 PM PST on December 08, 2019 (GMT -0800)
Blythe

Weather History for KBLH - November, 2019

Change the Weather History Date:

Friday, November 15, 2019

  Actual Average Record
Temperature  
Mean Temperature 68 °F -  
Max Temperature 84 °F 74 °F 89 °F (1999)
Min Temperature 53 °F 48 °F 38 °F (1994)
Cooling Degree Days 4    
Growing Degree Days 18 (Base 50)    
Moisture  
Dew Point 30 °F    
Average Humidity 27    
Maximum Humidity 47    
Minimum Humidity 14    
Precipitation  
Precipitation 0.00 in - - ()
Sea Level Pressure  
Sea Level Pressure 29.99 in    
Wind  
Wind Speed 4 mph (NW)    
Max Wind Speed 8 mph    
Max Gust Speed -    
Visibility 10 miles    
Events      
Averages and records for this station are not official NWS values.
T = Trace of Precipitation, MM = Missing Value Source: NWS Daily Summary

Daily Weather History Graph

Daily Weather History Graph

Search for Another Location

Airport or City:

Astronomy

Nov. 15, 2019 Rise Set
Actual Time 6:10 AM PST 4:36 PM PST
Civil Twilight 5:44 AM PST 5:02 PM PST
Nautical Twilight 5:14 AM PST 5:32 PM PST
Astronomical Twilight 4:44 AM PST 6:02 PM PST
Moon 7:20 PM PST (11/15) 9:06 AM PST (11/15)
Length of Visible Light 11h 18m
Length of Day
10h 25m
Waning Gibbous, 89% of the Moon is Illuminated
Nov 15
Waning Gibbous
Nov 19
Last Quarter
Nov 26
New
Dec 3
First Quarter
Dec 11
Full

Hourly Weather History & Observations

Time (PST) Temp. Dew Point Humidity Pressure Visibility Wind Dir Wind Speed Gust Speed Precip Events Conditions
12:52 AM 57.0 °F 27.0 °F 32% 30.04 in 10.0 mi NNW 5.8 mph - N/A   Clear
1:52 AM 55.9 °F 27.0 °F 33% 30.03 in 10.0 mi NNW 8.1 mph - N/A   Clear
2:52 AM 54.0 °F 26.1 °F 34% 30.03 in 10.0 mi North 4.6 mph - N/A   Clear
3:52 AM 57.9 °F 28.9 °F 33% 30.02 in 10.0 mi Calm Calm - N/A   Clear
4:52 AM 54.0 °F 25.0 °F 33% 30.03 in 10.0 mi Calm Calm - N/A   Clear
5:52 AM 55.0 °F 25.0 °F 31% 30.04 in 10.0 mi Calm Calm - N/A   Clear
6:52 AM 53.1 °F 33.1 °F 47% 30.06 in 10.0 mi NW 3.5 mph - N/A   Clear
7:52 AM 61.0 °F 30.9 °F 32% 30.07 in 10.0 mi SW 4.6 mph - N/A   Clear
8:52 AM 66.0 °F 30.9 °F 27% 30.08 in 10.0 mi SSW 5.8 mph - N/A   Clear
9:52 AM 68.0 °F 35.1 °F 30% 30.06 in 10.0 mi SSE 3.5 mph - N/A   Clear
10:52 AM 73.0 °F 35.1 °F 25% 30.04 in 10.0 mi Calm Calm - N/A   Clear
11:52 AM 78.1 °F 34.0 °F 20% 30.00 in 10.0 mi SE 3.5 mph - N/A   Clear
1:52 PM 82.9 °F 35.1 °F 18% 29.94 in 10.0 mi WNW 3.5 mph - N/A   Clear
2:52 PM 84.0 °F 32.0 °F 15% 29.93 in 10.0 mi WSW 3.5 mph - N/A   Clear
3:52 PM 84.0 °F 30.0 °F 14% 29.92 in 10.0 mi Calm Calm - N/A   Clear
4:52 PM 79.0 °F 37.0 °F 22% 29.92 in 10.0 mi East 3.5 mph - N/A   Clear
5:52 PM 73.0 °F 34.0 °F 24% 29.92 in 10.0 mi East 4.6 mph - N/A   Clear
6:52 PM 70.0 °F 28.9 °F 22% 29.93 in 10.0 mi Calm Calm - N/A   Clear
7:52 PM 64.9 °F 26.1 °F 23% 29.93 in 10.0 mi NNW 5.8 mph - N/A   Clear
8:52 PM 63.0 °F 26.1 °F 25% 29.94 in 10.0 mi Calm Calm - N/A   Clear
9:52 PM 63.0 °F 28.9 °F 28% 29.94 in 10.0 mi NW 5.8 mph - N/A   Clear
10:52 PM 61.0 °F 27.0 °F 27% 29.94 in 10.0 mi WNW 8.1 mph - N/A   Clear
11:52 PM 62.1 °F 30.0 °F 30% 29.94 in 10.0 mi WNW 3.5 mph - N/A   Clear